Location: Unspecified
(0.0000°N, 0.0000°E)
Time: 09:53:32
(UTC+00:00)

Orbcomm D8 (FM36) - Visible Passes

Search period start: 05 June 2023 00:00
Search period end: 15 June 2023 00:00
Orbit: 775 x 779 km, 45.0° (Epoch: 04 June)

Date Brightness Start Highest point End Pass type
(mag) Time Alt. Az. Time Alt. Az. Time Alt. Az.
05 Jun 8.8 18:21:48 10° NNW 18:27:04 53° NE 18:32:22 10° SE visible
05 Jun 10.6 20:08:56 10° W 20:12:28 17° SW 20:13:04 17° SW visible
06 Jun 10.9 05:12:50 10° S 05:16:07 16° SE 05:19:24 10° E visible
06 Jun 10.3 19:31:41 10° W 19:35:55 23° SW 19:38:48 15° S visible
07 Jun 11.0 04:37:34 10° SSE 04:39:32 12° SE 04:41:30 10° ESE visible
07 Jun 10.0 18:54:39 10° WNW 18:59:23 30° SW 19:04:07 10° SSE visible
08 Jun 9.6 18:17:47 10° WNW 18:22:52 40° SW 18:27:56 10° SSE visible
09 Jun 9.0 05:06:37 10° SSW 05:11:59 58° SE 05:17:19 10° NE visible
10 Jun 9.4 04:32:19 22° SSW 04:35:27 43° SE 04:40:36 10° ENE visible
11 Jun 9.7 03:58:02 30° SSE 03:58:55 32° SE 04:03:45 10° ENE visible
12 Jun 10.5 03:23:43 22° ESE 03:23:43 22° ESE 03:26:44 10° E visible
12 Jun 9.3 05:04:08 17° WSW 05:07:43 38° NW 05:12:45 10° NNE visible
13 Jun 11.4 02:49:23 10° E 02:49:23 10° E 02:49:31 10° E visible
13 Jun 8.8 04:29:47 40° W 04:31:12 51° NW 04:36:28 10° NNE visible
14 Jun 8.8 03:55:23 61° N 03:55:23 61° N 04:00:05 10° NE visible
